Location: Isle of Man Observatory
(54.1776°N, 4.6264°W)
Time: 15:36:45
(UTC+02:00)

ARIANE 6 FM1 Upper Stage - Pass Details

Date: 20 April 2026
Orbit: 526 x 601 km, 62.0° (Epoch: 19 May)

Event Time Altitude Azimuth Distance (km) Brightness Sun altitude
Rises 01:11:05 0° 305° (NW) 2,688 7.0 -22.9°
Reaches altitude 10° 01:13:22 10° 312° (NW) 1,788 6.0 -23.0°
Maximum altitude 01:17:14 46° 26° (NNE) 723 3.4 -23.1°
Enters shadow 01:18:09 38° 65° (ENE) 817 3.5 -23.2°
